User: anonymous   Login
Location: Beuvrequen
(50.8014°N, 1.6652°E)
Time: 09:07:53
(UTC+00:00)
Language:

SeaSat 1 - Orbit

View from above orbital plane
View from above orbital plane
View from above satellite
View from above satellite

Ground track
Ground track

The orbit data is extracted from the following two-line orbital elements,

1 10967U 78064A   22019.46638944  .00000096  00000-0  68093-4 0  9991
2 10967 107.9961 204.9111 0001374 242.9885 117.1119 14.43932251288372
Epoch (UTC): 19 January 2022 11:11:36
Eccentricity: 0.0001374
inclination: 107.9961°
perigee height: 744 km
apogee height: 746 km
right ascension of ascending node: 204.9111°
argument of perigee: 242.9885°
revolutions per day: 14.43932251
mean anomaly at epoch: 117.1119°
orbit number at epoch: 28837

The dashed part of the orbit path shows where the satellite is in the earth's shadow,  

DLR